Change the Weather History Date:

Monday, August 4, 2014

  Actual Average (KDAY) Record (KDAY)
Temperature  
Mean Temperature 68 °F 74 °F  
Max Temperature 83 °F 83 °F 98 °F (1930)
Min Temperature 54 °F 64 °F 48 °F (1912)
Degree Days  
Heating Degree Days 0 0  
Month to date heating degree days 0  
Since 1 June heating degree days 22  
Since 1 July heating degree days 0  
Cooling Degree Days 4 9  
Month to date cooling degree days 36  
Year to date cooling degree days 575  
Since 1 June cooling degree days 505  
Growing Degree Days 18 (Base 50)    
Moisture  
Dew Point 59 °F    
Average Humidity 90    
Maximum Humidity 100    
Minimum Humidity 51    
Precipitation  
Precipitation 0.00 in 0.10 in 2.86 in (1959)
Month to date precipitation 0.40  
Year to date precipitation 25.72  
Snow  
Snow 0.00 in 0.00 in 0.00 in ()
Month to date snowfall 0.0  
Since 1 June snowfall 0.0  
Since 1 July snowfall 0.0  
Snow Depth -    
Sea Level Pressure  
Sea Level Pressure 30.13 in    
Wind  
Wind Speed 0 mph (WSW)    
Max Wind Speed 8 mph    
Max Gust Speed -    
Visibility 4 miles    
Events Fog , Rain    
T = Trace of Precipitation, MM = Missing Value Source: NWS Daily Summary

Daily Weather History Graph

Daily Weather History Graph

Search for Another Location

Airport or City:

Trip Planner

Search our weather history database for the weather conditions in past years. The results will help you decide how hot, cold, wet, or windy it might be!

Date:

Astronomy

Aug. 04, 2014 Rise Set
Actual Time 6:36 AM EDT 8:45 PM EDT
Civil Twilight 6:06 AM EDT 9:15 PM EDT
Nautical Twilight 5:30 AM EDT 9:51 PM EDT
Astronomical Twilight 4:50 AM EDT 10:31 PM EDT
Moon 2:56 PM EDT (8/4) 12:43 AM EDT (8/4)
Length of Visible Light 15h 08m
Length of Day
14h 08m
First Quarter, 57% of the Moon is Illuminated
Aug 4
First Quarter
Aug 10
Full
Aug 17
Last Quarter
Aug 25
New
Sep 2
First Quarter

Hourly Weather History & Observations

Time (EDT) Temp. Heat Index Dew Point Humidity Pressure Visibility Wind Dir Wind Speed Gust Speed Precip Events Conditions
12:56 AM 61.9 °F - 59.9 °F 93% 30.13 in 7.0 mi Calm Calm - N/A   Clear
1:56 AM 59.9 °F - 59.9 °F 100% 30.12 in 6.0 mi Calm Calm - N/A   Clear
2:26 AM 60.8 °F - 59.0 °F 94% 30.14 in 1.5 mi Calm Calm - N/A   Clear
2:28 AM 60.8 °F - 59.0 °F 94% 30.14 in 0.5 mi Calm Calm - N/A Fog Fog
2:36 AM 60.8 °F - 59.0 °F 94% 30.14 in 0.2 mi Calm Calm - N/A Fog Fog
2:42 AM 60.8 °F - 60.8 °F 100% 30.14 in 0.8 mi Calm Calm - N/A   Clear
2:45 AM 60.8 °F - 60.8 °F 100% 30.14 in 1.2 mi Calm Calm - N/A   Clear
2:47 AM 60.8 °F - 60.8 °F 100% 30.14 in 2.5 mi Calm Calm - N/A   Clear
2:56 AM 61.0 °F - 59.9 °F 96% 30.12 in 5.0 mi Calm Calm - N/A   Clear
3:56 AM 59.0 °F - 59.0 °F 100% 30.11 in 2.0 mi Calm Calm - N/A   Clear
3:58 AM 59.0 °F - 59.0 °F 100% 30.13 in 0.8 mi Calm Calm - N/A   Clear
4:00 AM 59.0 °F - 59.0 °F 100% 30.13 in 0.2 mi Calm Calm - N/A Fog Fog
4:25 AM 57.2 °F - 57.2 °F 100% 30.13 in 0.8 mi Calm Calm - N/A   Clear
4:27 AM 57.2 °F - 57.2 °F 100% 30.13 in 2.5 mi Calm Calm - N/A   Clear
4:34 AM 57.2 °F - 57.2 °F 100% 30.14 in 0.5 mi Calm Calm - N/A Fog Fog
4:41 AM 57.2 °F - 57.2 °F 100% 30.14 in 0.2 mi Calm Calm - N/A Fog Fog
4:56 AM 56.8 °F - 56.8 °F 100% 30.12 in 0.2 mi Calm Calm - N/A Fog Fog
5:06 AM 57.2 °F - 57.2 °F 100% 30.14 in 2.0 mi Calm Calm - N/A   Clear
5:13 AM 55.4 °F - 55.4 °F 100% 30.14 in 4.0 mi Calm Calm - N/A   Clear
5:17 AM 55.4 °F - 55.4 °F 100% 30.14 in 0.8 mi Calm Calm - N/A   Mist
5:19 AM 55.4 °F - 55.4 °F 100% 30.14 in 0.2 mi Calm Calm - N/A Fog Fog
5:29 AM 55.4 °F - 55.4 °F 100% 30.14 in 0.2 mi Calm Calm - N/A Fog Fog
5:41 AM 57.2 °F - 57.2 °F 100% 30.15 in 0.2 mi Calm Calm - N/A Fog Fog
5:47 AM 57.2 °F - 57.2 °F 100% 30.15 in 1.0 mi Calm Calm - N/A   Mist
5:49 AM 55.4 °F - 55.4 °F 100% 30.15 in 3.0 mi Calm Calm - N/A   Partly Cloudy
5:56 AM 55.9 °F - 55.9 °F 100% 30.13 in 0.5 mi Calm Calm - N/A Fog Fog
6:06 AM 55.4 °F - 55.4 °F 100% 30.15 in 0.2 mi Calm Calm - N/A Fog Fog
6:23 AM 55.4 °F - 55.4 °F 100% 30.15 in 0.5 mi Calm Calm - N/A Fog Fog
6:39 AM 55.4 °F - 55.4 °F 100% 30.15 in 0.8 mi Calm Calm - N/A   Clear
6:42 AM 55.4 °F - 55.4 °F 100% 30.15 in 1.2 mi Calm Calm - N/A   Clear
6:44 AM 55.4 °F - 55.4 °F 100% 30.15 in 2.5 mi Calm Calm - N/A   Clear
6:56 AM 54.9 °F - 54.9 °F 100% 30.14 in 6.0 mi Calm Calm - N/A   Clear
7:01 AM 55.4 °F - 55.4 °F 100% 30.15 in 1.0 mi Calm Calm - N/A   Clear
7:06 AM 55.4 °F - 55.4 °F 100% 30.15 in 0.2 mi Calm Calm - N/A Fog Fog
7:16 AM 55.4 °F - 55.4 °F 100% 30.16 in 0.2 mi Calm Calm - N/A Fog Fog
7:26 AM 55.4 °F - 55.4 °F 100% 30.16 in 0.5 mi Calm Calm - N/A Fog Fog
7:31 AM 57.2 °F - 57.2 °F 100% 30.16 in 1.0 mi Calm Calm - N/A   Clear
7:34 AM 57.2 °F - 57.2 °F 100% 30.16 in 2.5 mi Calm Calm - N/A   Clear
7:41 AM 57.2 °F - 57.2 °F 100% 30.16 in 4.0 mi Calm Calm - N/A   Clear
7:56 AM 59.0 °F - 59.0 °F 100% 30.14 in 6.0 mi Calm Calm - N/A   Clear
8:56 AM 65.8 °F - 64.9 °F 97% 30.15 in 6.0 mi Calm Calm - N/A   Clear
9:56 AM 72.9 °F - 63.0 °F 71% 30.16 in 7.0 mi WSW 3.5 mph - N/A   Clear
10:56 AM 77.0 °F - 63.0 °F 62% 30.16 in 8.0 mi NW 6.9 mph - N/A   Clear
11:56 AM 79.9 °F - 64.9 °F 60% 30.16 in 8.0 mi NW 8.1 mph - N/A   Clear
12:56 PM 81.9 °F 83.2 °F 63.9 °F 54% 30.15 in 8.0 mi Variable 3.5 mph - N/A   Clear
1:56 PM 82.9 °F 84.6 °F 64.9 °F 54% 30.14 in 7.0 mi Calm Calm - N/A   Partly Cloudy
2:56 PM 82.9 °F 84.0 °F 63.0 °F 51% 30.12 in 8.0 mi Calm Calm - N/A   Mostly Cloudy
3:56 PM 82.9 °F 84.2 °F 63.9 °F 52% 30.10 in 8.0 mi SSE 3.5 mph - 0.00 in Rain Light Rain
4:56 PM 83.8 °F 85.1 °F 63.9 °F 51% 30.09 in 8.0 mi Calm Calm - 0.00 in   Scattered Clouds
5:56 PM 82.9 °F 84.2 °F 63.9 °F 52% 30.08 in 8.0 mi SSE 6.9 mph - N/A   Clear
6:56 PM 79.0 °F - 63.0 °F 58% 30.09 in 8.0 mi Calm Calm - N/A   Clear
7:56 PM 77.0 °F - 66.9 °F 71% 30.09 in 8.0 mi Calm Calm - N/A   Clear
8:56 PM 72.0 °F - 64.9 °F 78% 30.09 in 9.0 mi Calm Calm - N/A   Clear
9:56 PM 68.9 °F - 64.9 °F 87% 30.09 in 8.0 mi Calm Calm - N/A   Clear
10:56 PM 66.9 °F - 63.9 °F 90% 30.10 in 8.0 mi Calm Calm - N/A   Clear
11:56 PM 66.9 °F - 63.9 °F 90% 30.09 in 7.0 mi Calm Calm - N/A   Clear